| time (UTC) | temp F | wind direction | speed MPH | gust MPH | rain 1hr in | rain 24hr in | rain mn in | humidity % | barometer mb |
| 20260510211818 | 59 | 128 | 0.0 | 0.0 | 0.00 | 0.00 | 0.00 | 77 | 1020.0 |
| 20260510210323 | 58 | 128 | 0.0 | 0.0 | 0.00 | 0.00 | 0.00 | 78 | 1020.0 |
| 20260510204829 | 58 | 128 | 0.0 | 0.0 | 0.00 | 0.00 | 0.00 | 81 | 1020.0 |
| 20260510203355 | 58 | 128 | 0.0 | 0.0 | 0.00 | 0.00 | 0.00 | 82 | 1019.9 |
| 20260510201821 | 58 | 128 | 0.0 | 0.0 | 0.00 | 0.00 | 0.00 | 82 | 1019.9 |
| 20260510200320 | 58 | 128 | 0.0 | 0.0 | 0.00 | 0.00 | 0.00 | 82 | 1019.8 |
| 20260510194826 | 58 | 128 | 0.0 | 0.0 | 0.00 | 0.00 | 0.00 | 82 | 1019.6 |
| 20260510193315 | 58 | 128 | 0.0 | 0.0 | 0.00 | 0.00 | 0.00 | 83 | 1019.5 |
| 20260510191817 | 59 | 128 | 0.0 | 0.0 | 0.00 | 0.00 | 0.00 | 84 | 1019.5 |
| 20260510190322 | 59 | 128 | 0.0 | 0.0 | 0.00 | 0.00 | 0.00 | 85 | 1019.3 |
| 20260510184832 | 60 | 128 | 0.0 | 0.0 | 0.00 | 0.00 | 0.00 | 85 | 1019.3 |
| 20260510183336 | 61 | 128 | 0.0 | 0.0 | 0.00 | 0.00 | 0.00 | 85 | 1019.3 |
| 20260510181823 | 61 | 128 | 0.0 | 0.0 | 0.00 | 0.00 | 0.00 | 85 | 1019.2 |
| 20260510180349 | 62 | 128 | 0.0 | 0.0 | 0.00 | 0.00 | 0.00 | 85 | 1019.0 |
| 20260510174836 | 62 | 128 | 0.0 | 0.0 | 0.00 | 0.00 | 0.00 | 84 | 1019.3 |
| 20260510173339 | 62 | 128 | 0.0 | 0.0 | 0.00 | 0.00 | 0.00 | 84 | 1019.2 |
| 20260510171845 | 63 | 128 | 0.0 | 0.0 | 0.00 | 0.00 | 0.00 | 84 | 1019.2 |
| 20260510170329 | 63 | 128 | 0.0 | 0.0 | 0.00 | 0.00 | 0.00 | 84 | 1019.3 |
| 20260510164816 | 63 | 128 | 0.0 | 0.0 | 0.00 | 0.00 | 0.00 | 85 | 1019.3 |
| 20260510163314 | 63 | 128 | 0.0 | 0.0 | 0.00 | 0.00 | 0.00 | 85 | 1019.4 |
| 20260510161822 | 63 | 128 | 0.0 | 0.0 | 0.00 | 0.00 | 0.00 | 85 | 1019.4 |
| 20260510160327 | 63 | 128 | 0.0 | 0.0 | 0.00 | 0.00 | 0.00 | 85 | 1019.5 |
| 20260510154820 | 63 | 129 | 0.0 | 0.0 | 0.00 | 0.00 | 0.00 | 85 | 1019.7 |
| 20260510153346 | 63 | 129 | 0.0 | 0.0 | 0.00 | 0.00 | 0.00 | 85 | 1019.6 |
| 20260510151833 | 63 | 129 | 0.0 | 0.0 | 0.00 | 0.00 | 0.00 | 85 | 1019.7 |
| 20260510150338 | 63 | 129 | 0.0 | 0.0 | 0.00 | 0.00 | 0.00 | 84 | 1019.9 |
| 20260510144846 | 64 | 129 | 0.0 | 0.0 | 0.00 | 0.00 | 0.00 | 83 | 1020.0 |
| 20260510143328 | 64 | 129 | 0.0 | 0.0 | 0.00 | 0.00 | 0.00 | 83 | 1020.1 |
| 20260510141839 | 64 | 129 | 0.0 | 0.0 | 0.00 | 0.00 | 0.00 | 83 | 1020.1 |
| 20260510140315 | 64 | 129 | 0.0 | 0.0 | 0.00 | 0.00 | 0.00 | 83 | 1020.2 |
| 20260510134824 | 64 | 129 | 0.0 | 0.0 | 0.00 | 0.00 | 0.00 | 82 | 1020.3 |
| 20260510133329 | 64 | 129 | 0.0 | 0.0 | 0.00 | 0.00 | 0.00 | 82 | 1020.3 |
| 20260510131817 | 64 | 129 | 0.0 | 0.0 | 0.00 | 0.00 | 0.00 | 81 | 1020.3 |
| 20260510130316 | 64 | 129 | 0.0 | 0.0 | 0.00 | 0.00 | 0.00 | 81 | 1020.3 |
| 20260510124821 | 64 | 134 | 0.0 | 0.0 | 0.00 | 0.00 | 0.00 | 80 | 1020.2 |
| 20260510123346 | 65 | 133 | 0.0 | 0.0 | 0.00 | 0.00 | 0.00 | 80 | 1020.2 |
| 20260510121832 | 65 | 132 | 0.0 | 0.0 | 0.00 | 0.00 | 0.00 | 79 | 1020.1 |
| 20260510120321 | 65 | 104 | 0.0 | 0.0 | 0.00 | 0.00 | 0.00 | 78 | 1020.3 |
| 20260510114823 | 65 | 104 | 0.0 | 0.0 | 0.00 | 0.00 | 0.00 | 77 | 1020.2 |
| 20260510113330 | 66 | 104 | 0.0 | 0.0 | 0.00 | 0.00 | 0.00 | 76 | 1020.2 |
| 20260510111839 | 66 | 102 | 0.0 | 0.0 | 0.00 | 0.00 | 0.00 | 76 | 1020.2 |
| 20260510110343 | 66 | 129 | 0.0 | 0.0 | 0.00 | 0.00 | 0.00 | 75 | 1020.1 |
| 20260510104826 | 66 | 186 | 0.0 | 0.0 | 0.00 | 0.00 | 0.00 | 74 | 1019.9 |
| 20260510103315 | 67 | 122 | 0.0 | 0.0 | 0.00 | 0.00 | 0.00 | 71 | 1019.9 |
| 20260510101843 | 67 | 90 | 0.0 | 0.0 | 0.00 | 0.00 | 0.00 | 68 | 1019.5 |
| 20260510100347 | 68 | 138 | 0.0 | 0.0 | 0.00 | 0.00 | 0.00 | 65 | 1019.5 |
| 20260510094835 | 68 | 155 | 0.0 | 0.0 | 0.00 | 0.00 | 0.00 | 63 | 1019.3 |
| 20260510093313 | 69 | 103 | 1.0 | 0.0 | 0.00 | 0.00 | 0.00 | 61 | 1019.1 |
| 20260510091820 | 69 | 148 | 1.0 | 0.0 | 0.00 | 0.00 | 0.00 | 60 | 1019.0 |
| 20260510090327 | 69 | 132 | 2.0 | 0.0 | 0.00 | 0.00 | 0.00 | 60 | 1018.9 |
| 20260510084813 | 70 | 109 | 1.0 | 0.0 | 0.00 | 0.00 | 0.00 | 58 | 1018.7 |
| 20260510083315 | 70 | 171 | 2.0 | 0.0 | 0.00 | 0.00 | 0.00 | 58 | 1018.6 |
| 20260510081822 | 71 | 112 | 1.0 | 0.0 | 0.00 | 0.00 | 0.00 | 58 | 1018.5 |
| 20260510080328 | 71 | 119 | 2.0 | 0.0 | 0.00 | 0.00 | 0.00 | 57 | 1018.6 |
| 20260510074830 | 72 | 134 | 1.0 | 0.0 | 0.00 | 0.00 | 0.00 | 56 | 1018.5 |
| 20260510073316 | 73 | 214 | 2.0 | 0.0 | 0.00 | 0.00 | 0.00 | 55 | 1018.3 |
| 20260510071823 | 73 | 171 | 1.0 | 0.0 | 0.00 | 0.00 | 0.00 | 53 | 1018.1 |
| 20260510070322 | 73 | 117 | 1.0 | 0.0 | 0.00 | 0.00 | 0.00 | 50 | 1018.0 |
| 20260510064828 | 74 | 110 | 1.0 | 0.0 | 0.00 | 0.00 | 0.00 | 50 | 1018.0 |
| 20260510063333 | 75 | 171 | 1.0 | 0.0 | 0.00 | 0.00 | 0.00 | 48 | 1017.8 |
| 20260510061832 | 75 | 101 | 1.0 | 0.0 | 0.00 | 0.00 | 0.00 | 47 | 1017.8 |
| 20260510060314 | 74 | 150 | 2.0 | 0.0 | 0.00 | 0.00 | 0.00 | 46 | 1017.9 |
| 20260510054823 | 75 | 121 | 2.0 | 0.0 | 0.00 | 0.00 | 0.00 | 42 | 1018.0 |
| 20260510053314 | 75 | 233 | 1.0 | 0.0 | 0.00 | 0.00 | 0.00 | 40 | 1018.0 |
| 20260510051815 | 75 | 110 | 2.0 | 0.0 | 0.00 | 0.00 | 0.00 | 39 | 1018.1 |
| 20260510050327 | 75 | 107 | 2.0 | 0.0 | 0.00 | 0.00 | 0.00 | 39 | 1018.2 |
| 20260510044823 | 75 | 111 | 3.0 | 0.0 | 0.00 | 0.00 | 0.00 | 40 | 1018.3 |
| 20260510043349 | 76 | 122 | 1.0 | 0.0 | 0.00 | 0.00 | 0.00 | 37 | 1018.4 |
| 20260510041817 | 75 | 125 | 1.0 | 0.0 | 0.00 | 0.00 | 0.00 | 38 | 1018.6 |
| 20260510040321 | 74 | 134 | 1.0 | 0.0 | 0.00 | 0.00 | 0.00 | 38 | 1018.8 |
| 20260510034831 | 74 | 121 | 2.0 | 0.0 | 0.00 | 0.00 | 0.00 | 39 | 1018.8 |
| 20260510033357 | 74 | 107 | 0.0 | 0.0 | 0.00 | 0.00 | 0.00 | 38 | 1019.0 |
| 20260510031817 | 73 | 109 | 3.0 | 0.0 | 0.00 | 0.00 | 0.00 | 38 | 1019.2 |
| 20260510030323 | 74 | 107 | 2.0 | 0.0 | 0.00 | 0.00 | 0.00 | 32 | 1019.3 |
| 20260510024828 | 74 | 109 | 1.0 | 0.0 | 0.00 | 0.00 | 0.00 | 30 | 1019.4 |
| 20260510023314 | 73 | 107 | 0.0 | 0.0 | 0.00 | 0.00 | 0.00 | 33 | 1019.5 |
| 20260510021815 | 73 | 109 | 1.0 | 0.0 | 0.00 | 0.00 | 0.00 | 34 | 1019.7 |
| 20260510020325 | 72 | 23 | 0.0 | 0.0 | 0.00 | 0.00 | 0.00 | 35 | 1020.0 |
| 20260510014812 | 72 | 5 | 0.0 | 0.0 | 0.00 | 0.00 | 0.00 | 35 | 1020.2 |
| 20260510013318 | 72 | 5 | 0.0 | 0.0 | 0.00 | 0.00 | 0.00 | 32 | 1020.2 |
| 20260510011824 | 70 | 360 | 0.0 | 0.0 | 0.00 | 0.00 | 0.00 | 34 | 1020.5 |
| 20260510010330 | 70 | 5 | 0.0 | 0.0 | 0.00 | 0.00 | 0.00 | 32 | 1020.5 |
| 20260510004818 | 70 | 5 | 0.0 | 0.0 | 0.00 | 0.00 | 0.00 | 31 | 1020.7 |
| 20260510003313 | 69 | 5 | 0.0 | 0.0 | 0.00 | 0.00 | 0.00 | 35 | 1020.7 |
| 20260510001850 | 68 | 5 | 0.0 | 0.0 | 0.00 | 0.00 | 0.00 | 35 | 1020.6 |
| 20260510000356 | 67 | 360 | 0.0 | 0.0 | 0.00 | 0.00 | 0.00 | 37 | 1020.6 |
| 20260509234814 | 66 | 360 | 1.0 | 0.0 | 0.00 | 0.00 | 0.00 | 36 | 1020.4 |
| 20260509233319 | 65 | 360 | 1.0 | 0.0 | 0.00 | 0.00 | 0.00 | 38 | 1020.4 |
| 20260509231848 | 64 | 11 | 0.0 | 0.0 | 0.00 | 0.00 | 0.00 | 40 | 1020.5 |
| 20260509230315 | 63 | 13 | 0.0 | 0.0 | 0.00 | 0.00 | 0.00 | 40 | 1020.5 |
| 20260509224820 | 63 | 13 | 0.0 | 0.0 | 0.00 | 0.00 | 0.00 | 41 | 1020.3 |
| 20260509223346 | 62 | 13 | 0.0 | 0.0 | 0.00 | 0.00 | 0.00 | 44 | 1020.2 |
| 20260509221833 | 62 | 17 | 0.0 | 0.0 | 0.00 | 0.00 | 0.00 | 50 | 1020.3 |
| 20260509220314 | 61 | 17 | 0.0 | 0.0 | 0.00 | 0.00 | 0.00 | 52 | 1020.2 |
| 20260509214824 | 60 | 17 | 0.0 | 0.0 | 0.00 | 0.00 | 0.00 | 54 | 1020.1 |
| 20260509213330 | 59 | 17 | 0.0 | 0.0 | 0.00 | 0.00 | 0.00 | 59 | 1019.8 |